Fremont, NE

12:23 AM CST on January 20, 2017 (GMT -0600)
Fremont Municipal

Weather History for KFET - January, 2014

Change the Weather History Date:

Monday, January 13, 2014

  Actual Average Record
Temperature  
Mean Temperature 36 °F -  
Max Temperature 47 °F 32 °F 62 °F (1987)
Min Temperature 25 °F 11 °F -15 °F (1964)
Degree Days  
Heating Degree Days 29    
Moisture  
Dew Point 27 °F    
Average Humidity 67    
Maximum Humidity 94    
Minimum Humidity 41    
Precipitation  
Precipitation 0.00 in - - ()
Sea Level Pressure  
Sea Level Pressure 29.75 in    
Wind  
Wind Speed 9 mph (WSW)    
Max Wind Speed 16 mph    
Max Gust Speed 22 mph    
Visibility 10 miles    
Events Rain    
Averages and records for this station are not official NWS values.
T = Trace of Precipitation, MM = Missing Value Source: NWS Daily Summary

Daily Weather History Graph

Daily Weather History Graph

Search for Another Location

Airport or City:

Trip Planner

Search our weather history database for the weather conditions in past years. The results will help you decide how hot, cold, wet, or windy it might be!

Date:

Astronomy

Jan. 13, 2014 Rise Set
Actual Time 7:50 AM CST 5:19 PM CST
Civil Twilight 7:20 AM CST 5:49 PM CST
Nautical Twilight 6:45 AM CST 6:24 PM CST
Astronomical Twilight 6:12 AM CST 6:57 PM CST
Moon 3:35 PM CST (1/13) 5:40 AM CST (1/13)
Length of Visible Light 10h 29m
Length of Day
9h 28m
Waxing Gibbous, 95% of the Moon is Illuminated
Jan 13
Waxing Gibbous
Jan 15
Full
Jan 23
Last Quarter
Jan 30
New
Feb 6
First Quarter

Hourly Weather History & Observations

Time (CST) Temp. Windchill Dew Point Humidity Pressure Visibility Wind Dir Wind Speed Gust Speed Precip Events Conditions
12:15 AM 40.1 °F 34.7 °F 30.7 °F 69% 29.67 in 10.0 mi WNW 8.1 mph - N/A   Clear
12:35 AM 39.2 °F 35.0 °F 30.2 °F 70% 29.67 in 10.0 mi WNW 5.8 mph - N/A   Clear
12:55 AM 38.8 °F 33.2 °F 29.7 °F 70% 29.68 in 10.0 mi West 8.1 mph - N/A   Clear
1:15 AM 37.8 °F 33.3 °F 29.3 °F 72% 29.68 in 10.0 mi West 5.8 mph - N/A   Scattered Clouds
1:35 AM 37.4 °F 31.4 °F 29.3 °F 73% 29.70 in 10.0 mi West 8.1 mph - N/A   Mostly Cloudy
1:55 AM 37.4 °F 30.8 °F 29.1 °F 72% 29.71 in 10.0 mi West 9.2 mph - N/A   Overcast
2:15 AM 37.6 °F 31.0 °F 28.8 °F 70% 29.70 in 10.0 mi West 9.2 mph - N/A   Scattered Clouds
2:35 AM 36.7 °F 29.4 °F 28.4 °F 72% 29.71 in 10.0 mi West 10.4 mph - N/A   Clear
2:55 AM 35.2 °F 27.1 °F 28.2 °F 76% 29.72 in 10.0 mi West 11.5 mph - N/A   Scattered Clouds
3:15 AM 32.9 °F 25.9 °F 27.5 °F 81% 29.72 in 10.0 mi West 8.1 mph - N/A   Clear
3:35 AM 32.9 °F 25.3 °F 27.5 °F 81% 29.73 in 10.0 mi West 9.2 mph - N/A   Clear
3:55 AM 32.9 °F 24.1 °F 28.4 °F 84% 29.74 in 10.0 mi WNW 11.5 mph - N/A   Clear
4:15 AM 32.5 °F 23.7 °F 28.4 °F 85% 29.75 in 10.0 mi WNW 11.5 mph - N/A   Clear
4:35 AM 32.0 °F 24.8 °F 28.2 °F 86% 29.76 in 10.0 mi West 8.1 mph - N/A   Clear
4:55 AM 32.4 °F 23.5 °F 28.9 °F 87% 29.77 in 10.0 mi WNW 11.5 mph - N/A   Clear
5:15 AM 34.3 °F 25.5 °F 30.9 °F 87% 29.78 in 10.0 mi WNW 12.7 mph - N/A   Scattered Clouds
5:35 AM 34.9 °F 25.7 °F 31.1 °F 86% 29.79 in 10.0 mi WNW 13.8 mph - N/A   Mostly Cloudy
5:55 AM 34.7 °F 24.7 °F 30.9 °F 86% 29.80 in 10.0 mi NW 16.1 mph 19.6 mph N/A   Scattered Clouds
6:15 AM 32.9 °F 24.1 °F 28.9 °F 85% 29.81 in 10.0 mi NW 11.5 mph - N/A   Scattered Clouds
6:35 AM 32.5 °F 21.9 °F 27.3 °F 81% 29.81 in 10.0 mi NW 16.1 mph 21.9 mph N/A   Clear
6:55 AM 31.3 °F 22.7 °F 26.1 °F 81% 29.81 in 10.0 mi NW 10.4 mph - N/A   Clear
7:15 AM 29.1 °F 20.0 °F 25.2 °F 85% 29.81 in 10.0 mi WNW 10.4 mph - N/A   Clear
7:35 AM 27.7 °F 18.8 °F 24.8 °F 89% 29.82 in 10.0 mi WNW 9.2 mph - N/A   Clear
7:55 AM 25.9 °F 16.6 °F 23.5 °F 91% 29.83 in 10.0 mi WNW 9.2 mph - N/A   Clear
8:15 AM 25.5 °F 17.8 °F 23.9 °F 94% 29.84 in 10.0 mi WNW 6.9 mph - N/A   Clear
8:35 AM 25.7 °F 19.0 °F 23.7 °F 92% 29.84 in 10.0 mi West 5.8 mph - N/A   Clear
8:55 AM 28.0 °F 21.7 °F 25.2 °F 89% 29.85 in 10.0 mi WNW 5.8 mph - N/A   Clear
9:15 AM 29.7 °F 22.8 °F 25.7 °F 85% 29.85 in 10.0 mi West 6.9 mph - N/A   Clear
9:35 AM 31.3 °F 23.3 °F 26.2 °F 82% 29.86 in 10.0 mi West 9.2 mph - N/A   Clear
9:55 AM 33.1 °F 26.1 °F 27.3 °F 79% 29.86 in 10.0 mi West 8.1 mph - N/A   Clear
10:15 AM 35.1 °F 27.9 °F 27.9 °F 75% 29.85 in 10.0 mi West 9.2 mph - N/A   Clear
10:35 AM 36.5 °F 28.2 °F 28.9 °F 74% 29.86 in 10.0 mi West 12.7 mph - N/A   Clear
10:55 AM 38.3 °F 30.5 °F 29.8 °F 72% 29.85 in 10.0 mi West 12.7 mph - N/A   Clear
11:15 AM 38.3 °F 30.9 °F 28.0 °F 67% 29.85 in 10.0 mi West 11.5 mph 16.1 mph N/A   Clear
11:35 AM 39.4 °F 32.7 °F 28.0 °F 64% 29.84 in 10.0 mi West 10.4 mph - N/A   Clear
11:55 AM 40.1 °F 33.2 °F 27.5 °F 61% 29.84 in 10.0 mi West 11.5 mph - N/A   Clear
12:15 PM 41.0 °F 33.5 °F 27.1 °F 58% 29.83 in 10.0 mi West 13.8 mph - N/A   Clear
12:35 PM 41.2 °F 35.5 °F 27.0 °F 57% 29.81 in 10.0 mi West 9.2 mph - N/A   Clear
12:55 PM 42.8 °F 35.8 °F 26.8 °F 53% 29.79 in 10.0 mi WSW 13.8 mph - N/A   Clear
1:15 PM 41.5 °F 37.1 °F 24.6 °F 51% 29.78 in 10.0 mi WSW 6.9 mph - N/A   Clear
1:35 PM 43.9 °F 39.9 °F 25.5 °F 48% 29.76 in 10.0 mi WSW 6.9 mph - N/A   Clear
1:55 PM 45.3 °F 42.3 °F 25.9 °F 47% 29.75 in 10.0 mi West 5.8 mph - N/A   Clear
2:15 PM 46.6 °F - 25.7 °F 44% 29.75 in 10.0 mi WSW 10.4 mph - N/A   Clear
2:35 PM 47.3 °F - 25.9 °F 43% 29.74 in 10.0 mi WSW 10.4 mph - N/A   Clear
2:55 PM 47.7 °F - 25.7 °F 42% 29.74 in 10.0 mi SW 8.1 mph - N/A   Clear
3:15 PM 47.3 °F - 25.0 °F 42% 29.74 in 10.0 mi SSW 8.1 mph 16.1 mph N/A   Clear
3:35 PM 47.5 °F - 25.5 °F 42% 29.74 in 10.0 mi SSW 6.9 mph - N/A   Clear
3:55 PM 47.5 °F - 25.0 °F 41% 29.74 in 10.0 mi SSW 10.4 mph - N/A   Clear
4:15 PM 47.3 °F - 24.6 °F 41% 29.74 in 10.0 mi SSW 8.1 mph - N/A   Clear
4:35 PM 45.0 °F 40.1 °F 25.7 °F 47% 29.74 in 10.0 mi SSW 9.2 mph - N/A   Clear
4:55 PM 44.4 °F 40.5 °F 26.2 °F 49% 29.73 in 10.0 mi South 6.9 mph - N/A   Clear
5:15 PM 42.4 °F 38.1 °F 26.1 °F 52% 29.73 in 10.0 mi South 6.9 mph - N/A   Scattered Clouds
5:35 PM 42.1 °F 37.7 °F 26.4 °F 54% 29.72 in 10.0 mi South 6.9 mph - N/A   Clear
5:55 PM 41.2 °F 36.6 °F 26.6 °F 56% 29.71 in 10.0 mi South 6.9 mph - N/A   Clear
6:15 PM 41.2 °F 36.6 °F 27.0 °F 57% 29.71 in 10.0 mi South 6.9 mph - N/A   Clear
6:35 PM 40.1 °F 35.3 °F 27.1 °F 60% 29.70 in 10.0 mi South 6.9 mph - N/A   Clear
6:55 PM 39.9 °F 34.5 °F 27.1 °F 60% 29.69 in 10.0 mi South 8.1 mph - N/A   Clear
7:15 PM 41.0 °F 35.8 °F 27.3 °F 58% 29.69 in 10.0 mi South 8.1 mph - N/A   Clear
7:35 PM 39.7 °F 34.3 °F 26.6 °F 59% 29.69 in 10.0 mi SSW 8.1 mph - N/A   Clear
7:55 PM 38.7 °F 32.4 °F 26.1 °F 61% 29.69 in 10.0 mi SSW 9.2 mph - N/A   Clear
8:15 PM 37.6 °F 31.0 °F 25.5 °F 62% 29.69 in 10.0 mi SSW 9.2 mph - N/A   Clear
8:35 PM 37.4 °F 30.8 °F 25.3 °F 62% 29.69 in 10.0 mi SSW 9.2 mph - N/A   Clear
8:55 PM 37.8 °F 31.8 °F 25.0 °F 60% 29.69 in 10.0 mi SW 8.1 mph - N/A   Clear
9:15 PM 37.0 °F 31.6 °F 25.2 °F 62% 29.68 in 10.0 mi SW 6.9 mph - N/A   Clear
9:35 PM 38.8 °F 32.6 °F 25.7 °F 59% 29.68 in 10.0 mi SW 9.2 mph - N/A   Clear
9:55 PM 39.6 °F 33.5 °F 26.2 °F 59% 29.68 in 10.0 mi SW 9.2 mph - N/A   Clear
10:15 PM 38.5 °F 34.1 °F 26.2 °F 61% 29.68 in 10.0 mi WSW 5.8 mph - N/A   Clear
10:35 PM 40.5 °F 34.6 °F 28.0 °F 61% 29.69 in 10.0 mi West 9.2 mph - N/A   Clear
10:55 PM 39.2 °F 33.6 °F 30.9 °F 72% 29.69 in 10.0 mi West 8.1 mph - N/A Rain Light Rain
11:15 PM 39.6 °F 34.0 °F 32.5 °F 76% 29.67 in 10.0 mi West 8.1 mph - N/A   Mostly Cloudy
11:35 PM 37.8 °F 31.8 °F 31.3 °F 77% 29.67 in 10.0 mi West 8.1 mph - N/A   Clear
11:55 PM 41.4 °F 35.2 °F 32.0 °F 69% 29.65 in 10.0 mi WSW 10.4 mph - N/A   Clear